Location: San Antonio
(29.4240°N, 98.4930°W)
Time: 10:26:03
(UTC-05:00)

Envisat - Pass Details

Date: 25 June 2024
Orbit: 762 x 764 km, 98.3° (Epoch: 12 July)

Event Time Altitude Azimuth Distance (km) Brightness Sun altitude
Rises 04:11:30 0° 21° (NNE) 3,226 7.4 -25.4°
Reaches altitude 10° 04:13:56 10° 29° (NNE) 2,297 6.5 -25.1°
Maximum altitude 04:18:41 41° 99° (E) 1,095 4.0 -24.4°
Enters shadow 04:20:45 28° 148° (SSE) 1,402 4.2 -24.1°
